Flag for Austria Weather past 2 weeks in Hollabrunn, Lower Austria, Austria

Now
92 °F

Hot.


Feels Like: 88 °F
Forecast: 61 / 90 °F
Wind: 2 mph from Southeast

Location: Retz

Current Time: Aug 31, 2015 at 6:13:25 PM

Latest Report: Aug 31, 2015 at 5:00 PM


Visibility: N/A

Pressure: 29.82 "Hg

Humidity: 22%

Dew point: 48 °F

Location of HollabrunnLocation

Historic Weather in Hollabrunn — Graph

°F

Hollabrunn temperature yesterday

Maximum temperature yesterday: 93 °F (at 6:00 PM)
Minimum temperature yesterday: 68 °F (at 6:00 AM)
Average temperature yesterday: 80 °F

Past Weeks' High & Low Weather Summary

 TemperatureHumidityPressure
High93 °F (Aug 30, 6:00 PM)98% (Aug 17, 10:00 AM)30.23 "Hg (Aug 17, 10:00 AM)
Low55 °F (Aug 26, 7:00 AM)27% (Aug 30, 4:00 PM)29.68 "Hg (Aug 16, 5:00 PM)
Average68 °F67%30.00 "Hg
* Reported Aug 16 4:00 PM — Aug 31 4:00 PM, Hollabrunn, Weather by CustomWeather, © 2015

Note: Actual official high and low records may vary slightly from our data, if they occured in-between our weather recording intervals... More about our weather records

Advertising

Hollabrunn weather history for previous 24 hours

 ConditionsComfort  
Time TempWeatherWind HumidityBarometerVisibility
4:00 PM
Mon, Aug 31
92 °FHot.5 mph28%29.84 "HgN/A
3:00 PM90 °FHot.3 mph33%29.87 "HgN/A
2:00 PM87 °FSunny.3 mph38%29.89 "Hg11 mi
1:00 PM85 °FWarm.2 mph47%29.91 "HgN/A
12:00 PM81 °FWarm.2 mph57%29.93 "HgN/A
11:00 AM78 °FWarm.1 mph63%29.95 "HgN/A
10:00 AM75 °FMild.3 mph67%29.96 "HgN/A
9:00 AM72 °FMild.3 mph68%29.97 "HgN/A
8:00 AM70 °FSunny.3 mph72%29.97 "Hg8 mi
7:00 AM67 °FSunny.3 mph75%29.97 "Hg7 mi
6:00 AM67 °FMild.3 mph76%29.97 "HgN/A
5:00 AM69 °FMild.3 mph71%29.97 "HgN/A
4:00 AM71 °FMild.3 mph65%29.97 "HgN/A
3:00 AM73 °FMild.5 mph63%29.98 "HgN/A
2:00 AM74 °FMild.5 mph62%29.99 "HgN/A
1:00 AM75 °FMild.3 mph59%29.99 "HgN/A
12:00 AM77 °FWarm.3 mph54%30.00 "HgN/A
11:00 PM
Sun, Aug 30
79 °FWarm.3 mph51%30.00 "HgN/A
10:00 PM82 °FWarm.2 mph47%30.00 "HgN/A
9:00 PM83 °FWarm.2 mph46%29.99 "HgN/A
8:00 PM85 °FClear.2 mph45%29.98 "Hg11 mi
7:00 PM89 °FHot.2 mph35%29.97 "HgN/A
6:00 PM93 °FHot.2 mph30%29.97 "HgN/A
Weather by CustomWeather, © 2015

See weather overviewHow to use our weather pages